Orbital Elements at Epoch 2459200.5 (2020-Dec-17.0) TDB
Reference: JPL 12 (heliocentric ecliptic J2000)
Element | Value | Uncertainty (1-sigma) | Units |
e | .220081748454182 | 5.8736e-08 | |
a | 2.35233342522347 | 1.4437e-08 | au |
q | 1.834627772053074 | 1.3781e-07 | au |
i | 5.260619535496228 | 7.6128e-06 | deg |
node | 132.742995380987 | 6.7514e-05 | deg |
peri | 253.4816129453264 | 6.959e-05 | deg |
M | 42.70455559578943 | 1.8188e-05 | deg |
tp | 2459044.178594069304 (2020-Jul-13.67859407) | 6.5841e-05 | TDB |
period | 1317.791634871833 3.61 | 1.2132e-05 3.322e-08 | d yr |
n | .2731843111411261 | 2.515e-09 | deg/d |
Q | 2.870039078393866 | 1.7615e-08 | au |
|
| | Orbit Determination Parameters
Additional Information
|